Terminal Aerodrome Forecast
Issued by NWS Jackson, MS

Home | Current Version | Previous Version | Text Only | Print | Product List | Glossary On
Versions: 1 2 3 4 5 6 7 8 9 10 11 12 13 14 15 16 17 18 19 20 21 22 23 24 25 26 27 28 29 30 31 32
000
FTUS44 KJAN 061245 AAA
TAFGWO
TAF AMD
KGWO 061245Z 0613/0712 17005KT P6SM BKN015 BKN025
     FM061500 22008KT P6SM SCT035
     FM062000 21007KT P6SM BKN050
     FM070000 19005KT P6SM FEW250=

USA.gov is the U.S. government's official web portal to all federal, state and local government web resources and services.